Regional Weather Roundup
Issued by NWS

Home | Current Version | Previous Version | Text Only | Print | Product List | Glossary On
Versions: 1 2 3 4 5 6 7 8 9 10 11 12 13 14 15 16 17 18 19 20 21 22 23 24 25 26 27 28 29 30 31 32 33 34 35 36 37 38 39 40 41 42 43 44 45 46 47 48 49 50
000
ASUS42 KKEY 271410
RWRKEY

FLORIDA REGIONAL WEATHER ROUNDUP FOR THE FLORIDA KEYS
NATIONAL WEATHER SERVICE KEY WEST FLORIDA
1000 AM EDT TUE SEP 27 2016

...SOUTH FLORIDA AND THE KEYS...

CITY           SKY/WX    TMP DP  RH WIND       PRES   REMARKS
FORT MYERS     SUNNY     83  71  67 CALM      29.96R
SW REGIONAL AP SUNNY     83  72  69 CALM      29.96R
NAPLES         PTSUNNY   83  73  72 CALM      29.96R
MIAMI          PTSUNNY   83  74  74 CALM      29.96R
WEST KENDALL   CLOUDY    82  75  79 CALM      29.97R
HOMESTEAD      MOSUNNY   82  75  78 E2        29.96R
MARATHON       CLOUDY    85  73  67 SE3       29.97R HX  91
BOCA CHICA NAS TSTM      77  72  84 SW6       29.95R
KEY WEST INTL  LGT RAIN  77  70  79 SE8       29.96R

...INTERNATIONAL WEATHER...

CITY           SKY/WX    TMP DP  RH WIND       PRES   REMARKS
NASSAU BAHAMAS PTSUNNY   84  79  84 E6        30.02R VSB 5/8 HX  96
CANCUN MEXICO  PTSUNNY   84  79  84 SE8       29.94R HX  96
COZUMEL MEXICO MOSUNNY   79  75  89 CALM      29.96R

ADJACENT COASTAL WATERS...

STATION/POSITION TIME  SKY/WX   TEMP    WIND        PRES    WAVE
                                AIR SEA DIR/SP/G            HT/PER
                 (UTC)          (F)     (DEG/KT/KT) (MB)    (FT/S)
PULASKI SHOAL LI 1400            83     340/  5/  6 1014.6R
SAND KEY         1350            80     110/ 17/ 21 1014.5R
LONG KEY         1300            83 84  130/  5/  5 1014.3R
FOWEY ROCKS      1300            82 85  350/  3/  4 1014.9R

$$



USA.gov is the U.S. government's official web portal to all federal, state and local government web resources and services.